Lapse_Rate
6.2 6.0 6.0 5.9 5.7 5.5 5.5 5.4 5.3 5.2 5.1 5.0 5.0 4.9 4.9 5.0 4.9 4.9 4.8 4.7 4.6 4.6
5.7 5.8 5.7 5.6 5.4 5.2 5.1 5.1 5.0 4.9 4.9 4.8 4.7 4.7 4.7 4.7 4.7 4.7 4.6 4.5 4.5 4.5
5.8 5.6 5.4 5.2 5.1 5.0 5.0 5.0 4.8 4.7 4.6 4.7 4.7 4.7 4.6 4.6 4.6 4.5 4.3 4.2 4.1 4.0
5.5 5.5 5.2 4.9 4.7 4.6 4.8 4.7 4.4 4.4 4.4 4.4 4.4 4.3 4.3 4.3 4.3 4.3 4.2 4.2 4.3 4.3
5.6 5.3 5.2 5.0 4.8 4.7 4.7 4.6 4.5 4.3 4.1 4.0 4.0 4.0 4.1 4.1 4.1 4.2 4.2 4.2 4.3 4.3
5.4 5.4 5.2 5.1 5.0 4.9 4.8 4.7 4.6 4.3 4.1 4.0 3.9 3.9 3.9 3.8 3.8 3.8 3.9 4.1 4.2 4.1
5.2 5.1 5.2 5.1 4.9 4.8 4.7 4.7 4.6 4.4 4.1 3.9 3.6 3.6 3.5 3.6 3.6 3.6 3.8 3.9 3.9 4.0
5.2 5.2 5.1 5.0 4.9 4.9 4.9 4.7 4.5 4.3 4.1 3.9 3.8 3.6 3.4 3.5 3.5 3.6 3.5 3.6 3.7 3.7
5.3 5.3 5.3 5.1 5.2 5.2 5.1 5.0 4.8 4.7 4.5 4.3 4.1 3.9 3.7 3.5 3.5 3.6 3.8 3.8 3.8 3.9
5.3 5.3 5.1 5.2 5.2 5.2 5.2 5.2 5.0 4.8 4.6 4.4 4.3 4.1 3.8 3.8 3.9 4.0 4.0 4.1 4.2 4.5
5.5 5.6 5.5 5.5 5.5 5.4 5.3 5.2 5.0 4.9 4.7 4.6 4.5 4.3 4.1 4.1 4.0 4.0 4.2 4.6 4.7 5.0
5.8 5.7 5.7 5.7 5.6 5.5 5.4 5.3 5.2 5.0 4.8 4.6 4.5 4.3 4.2 4.4 4.4 4.9 5.1 5.2 5.4 5.3
5.7 5.7 5.7 5.7 5.6 5.7 5.6 5.4 5.3 5.2 5.1 4.9 4.8 4.5 4.4 4.8 5.1 5.4 6.0 5.8 5.8 5.5
5.5 5.4 5.3 5.3 5.2 5.2 5.2 5.3 5.3 5.4 5.3 5.2 5.1 5.1 5.0 5.5 5.6 6.0 6.4 6.2 6.1 6.1
Wind_Speed
7 4 4 5 4 4 3 3 4 4 3 3 1 1 1 1 0 2 1 1 0 0
7 7 6 7 5 4 5 4 6 7 5 5 4 3 2 1 2 1 1 2 2 1
7 7 7 6 7 7 6 6 5 6 5 5 5 5 4 3 3 3 2 3 3 2
7 7 7 7 7 7 7 7 7 7 7 7 6 6 5 5 5 5 5 4 5 6
8 7 7 8 8 7 8 6 7 7 7 7 7 6 6 6 5 6 6 6 5 6
8 8 11 11 10 9 8 8 7 7 8 8 7 7 6 6 6 6 6 6 6 6
9 11 11 11 10 10 9 9 8 9 9 7 7 7 7 7 7 7 6 6 6 6
8 8 8 8 9 9 8 10 10 9 8 7 8 7 8 8 7 7 6 6 6 6
7 7 8 10 9 9 10 10 9 11 11 10 8 15 18 11 7 7 7 6 6 6
6 7 7 8 7 9 10 9 11 11 9 11 11 17 19 18 7 7 6 6 6 5
7 7 7 6 7 8 6 9 10 10 10 10 10 18 19 17 7 6 6 7 6 6
6 7 7 7 7 6 5 6 7 6 10 10 11 17 18 15 6 7 7 6 7 7
6 6 7 7 7 5 5 8 6 8 8 14 11 15 18 15 4 5 4 9 8 17
6 7 7 7 4 5 6 6 6 6 6 7 8 9 17 18 5 6 7 8 6 6
Wind_Direction
217 212 213 211 210 218 218 219 204 204 219 235 253 310 14 22 320 111 107 101 102 325
217 214 220 227 220 217 220 214 203 208 213 230 233 229 224 244 268 237 244 252 240 224
215 216 219 219 224 223 227 224 205 208 220 231 232 225 213 227 241 217 238 223 221 235
218 219 220 220 221 219 223 218 215 211 211 216 221 224 219 225 233 234 241 248 224 235
218 215 220 224 224 216 224 221 217 213 216 217 220 217 214 220 224 216 223 237 235 231
220 217 224 223 219 216 218 220 216 209 212 214 217 219 222 218 225 229 227 228 229 232
228 226 228 228 224 220 216 221 216 218 220 214 215 221 219 217 222 228 230 230 232 221
251 241 234 229 227 224 214 224 219 217 215 210 213 220 216 217 220 224 237 244 244 237
275 257 241 236 225 217 222 220 212 217 216 212 222 223 221 215 220 218 220 231 239 243
301 291 275 257 242 234 228 222 222 226 214 220 221 223 225 228 212 213 224 233 234 241
304 297 295 281 256 249 225 220 224 222 218 222 228 226 228 229 216 211 222 232 238 236
307 305 300 291 277 259 227 232 218 211 214 216 236 229 224 226 208 216 228 240 240 233
299 295 295 288 282 265 232 237 223 225 214 218 230 223 221 219 178 216 243 249 242 252
298 294 280 282 273 284 276 264 245 238 234 226 219 210 219 219 186 212 234 240 241 236